Theta_e
361 360 360 359 359 358 357 355 356 357 357 356 357 359 358 357 361 358 359 357 355 356 356 353 356 352 350 350 350 353 352 353 355 352 357 359 359 359 360 359 359 360 359 359 358 357 357 358 358 357 358 358 358 357 356 356 355 356 356 356 356 355 356 356 356 355 356 356 356 357 356 356 355 355 354 354 354 354 353 352 351 349 346 343 347
359 359 359 359 359 360 362 360 362 356 359 360 359 358 358 357 359 359 356 358 358 358 359 353 352 354 354 351 348 347 355 352 353 351 355 358 358 359 360 359 360 359 359 358 357 357 357 357 357 356 356 357 356 356 357 357 356 357 356 357 356 356 355 356 356 356 356 357 357 357 356 356 356 356 355 354 354 354 353 353 352 350 348 347 344
358 357 359 359 361 361 359 360 357 356 361 361 362 361 360 359 358 358 360 360 359 358 356 356 355 353 353 350 350 352 351 353 351 351 351 357 360 360 361 361 360 360 359 357 357 356 357 357 357 357 356 355 356 356 355 356 356 356 356 357 356 356 356 357 356 357 357 357 357 357 357 356 356 356 355 355 354 354 353 353 352 350 350 350 347
359 359 360 359 359 358 360 360 360 360 362 361 361 362 362 363 365 364 363 361 360 360 361 355 355 351 355 350 354 354 352 352 348 348 351 355 359 361 361 361 361 360 359 359 358 358 356 358 357 355 356 356 356 356 355 356 356 355 356 357 357 358 358 357 357 358 358 358 358 358 357 357 357 357 357 356 355 354 354 353 353 351 349 349 349
364 362 362 360 359 359 359 361 362 363 365 364 362 362 360 360 364 364 361 360 359 359 357 357 357 355 355 354 354 353 354 353 351 349 348 353 354 358 362 362 361 361 360 360 360 359 359 357 357 356 357 357 356 356 356 355 355 356 357 357 357 358 358 358 358 358 359 358 358 358 358 357 357 358 358 357 356 355 354 353 353 352 350 350 349
365 364 359 360 361 361 359 360 363 364 365 366 361 364 358 358 357 359 358 358 356 357 354 355 355 355 355 357 359 361 358 354 353 352 351 351 353 357 358 362 363 363 361 360 360 361 361 360 359 358 358 358 358 357 357 356 356 356 357 357 358 358 358 359 359 359 359 360 359 358 358 358 358 358 358 357 356 356 355 354 353 352 351 351 351
369 367 361 359 358 359 359 361 364 364 361 365 360 360 360 359 358 359 360 357 356 359 357 357 355 357 360 360 356 358 357 355 355 353 353 356 356 354 357 358 359 362 365 362 361 360 361 361 361 360 360 360 359 359 358 358 357 357 357 357 359 359 359 359 360 360 360 360 360 360 359 358 358 358 358 357 357 356 356 355 354 352 352 352 352
373 370 361 359 356 359 360 365 366 363 362 366 365 360 362 360 360 360 358 354 358 356 359 359 357 355 358 360 360 360 358 359 358 354 354 360 359 359 359 360 359 358 359 361 364 364 361 361 361 361 360 360 360 360 360 360 359 359 359 359 359 359 359 360 360 360 360 360 360 360 360 359 359 359 357 357 358 357 357 356 355 355 353 353 353
375 372 365 361 359 360 360 366 366 366 364 366 363 359 361 356 363 363 361 361 354 352 356 359 356 356 356 355 356 362 359 363 358 357 358 361 360 356 358 359 361 357 361 358 361 366 363 362 362 362 362 361 361 361 361 361 362 361 361 361 360 360 359 359 360 360 360 361 361 360 360 360 360 359 359 359 358 357 357 357 357 356 355 355 354
374 373 370 362 361 362 364 366 366 364 364 364 360 359 360 360 362 367 363 364 356 355 354 355 353 354 354 352 358 357 358 359 358 359 360 357 356 356 356 355 356 356 354 358 354 360 364 364 365 363 363 362 362 362 362 362 362 362 361 361 361 361 361 361 361 360 361 361 360 360 360 360 360 360 360 360 360 359 358 357 358 358 358 357 355
373 373 370 362 362 364 366 369 366 367 366 362 361 362 361 360 360 360 366 362 357 358 357 357 353 351 349 350 354 356 358 354 359 357 355 353 351 355 350 357 353 355 357 357 354 356 360 367 364 366 365 364 365 364 363 364 362 362 362 362 362 363 363 363 362 362 362 361 362 362 361 361 361 361 360 360 360 360 360 359 359 359 358 357 357
371 375 372 366 362 364 366 366 366 365 363 360 358 360 364 365 362 365 367 360 361 361 360 358 354 354 351 352 352 354 354 353 354 352 354 353 353 355 351 352 355 355 352 355 351 354 358 363 364 360 364 368 367 366 366 365 364 364 364 365 365 365 364 363 364 364 363 363 363 363 362 362 362 362 362 361 361 362 361 361 361 360 360 359 358
372 371 371 369 368 367 369 367 366 366 362 360 364 363 367 366 362 369 362 362 358 359 354 358 355 349 352 348 351 352 351 352 350 349 349 347 349 348 347 353 353 352 355 355 354 354 356 361 361 362 361 371 367 368 367 366 366 365 365 366 365 365 365 365 365 364 364 364 364 364 364 364 363 363 362 362 362 361 361 362 361 361 360 360 360
371 376 375 368 370 366 367 369 367 367 369 369 366 366 366 369 365 362 364 360 356 357 353 358 351 344 343 342 345 348 350 349 347 345 347 347 347 349 350 349 350 352 354 356 357 350 353 358 363 360 361 364 363 371 369 368 368 366 366 365 365 365 366 366 366 366 366 366 366 365 365 364 364 363 363 363 363 363 362 361 361 361 361 361 360
370 371 372 373 369 367 367 369 369 365 364 365 365 366 366 363 366 363 359 357 358 359 359 358 349 346 349 345 339 340 346 346 346 346 346 346 348 346 348 347 344 348 353 357 356 362 352 356 360 359 361 362 364 363 370 371 374 372 367 365 366 366 366 366 367 367 367 367 366 366 366 366 365 365 365 364 364 363 363 362 362 361 361 361 361
367 367 369 370 372 368 368 367 369 371 372 369 367 368 363 366 363 359 359 353 354 355 359 354 357 353 344 340 340 339 335 339 344 345 346 343 346 345 347 347 346 349 354 353 348 357 358 360 358 361 364 364 363 360 361 364 377 376 372 369 365 364 365 365 366 367 367 367 367 367 367 367 367 366 366 366 365 365 364 363 362 362 361 361 361
366 368 368 368 373 370 370 368 367 365 367 363 365 362 364 364 358 357 360 357 350 354 356 359 357 359 354 346 339 337 338 340 340 340 345 344 344 342 335 346 345 346 348 348 346 353 352 355 360 360 363 364 365 363 365 366 374 376 377 371 369 364 364 364 365 366 366 367 367 367 366 366 366 366 366 366 366 365 364 363 363 362 362 361 361
367 367 369 368 372 371 370 370 370 367 367 363 363 361 357 363 361 362 359 355 359 355 353 355 358 359 358 354 354 346 343 343 342 336 349 345 342 342 339 345 344 346 351 349 349 351 353 354 358 358 360 365 360 360 361 359 366 364 371 379 373 369 367 366 365 365 365 365 366 366 366 366 366 366 365 365 364 365 365 363 363 362 362 362 362
366 368 369 371 372 372 371 370 368 367 368 367 360 360 359 361 364 363 363 364 360 361 352 353 356 359 357 355 354 357 349 346 341 342 339 343 344 343 342 343 345 345 346 347 348 350 352 352 349 353 359 356 360 357 366 364 360 361 369 373 370 371 368 366 365 364 364 364 364 365 365 365 365 365 365 364 365 364 364 363 362 362 362 363 363
365 368 371 372 374 370 372 370 368 367 364 364 364 361 364 366 366 367 367 369 364 362 357 356 356 355 359 357 355 355 354 350 349 344 342 339 339 342 345 342 347 341 346 345 345 346 346 352 356 347 354 358 357 357 359 357 359 363 368 364 367 368 367 364 364 364 363 362 362 363 364 364 364 364 363 364 364 364 364 363 363 363 364 364 364
369 366 371 370 369 371 371 372 367 367 364 366 363 364 363 368 365 368 368 364 368 364 363 362 358 353 354 363 355 356 349 349 349 347 343 340 338 337 337 337 347 344 345 348 348 349 350 350 343 346 357 360 360 357 359 361 359 364 368 366 370 368 366 362 360 360 360 361 362 362 362 362 362 363 362 363 363 364 364 364 364 364 364 364 364
367 372 369 373 369 372 370 368 369 366 362 364 365 368 369 366 367 367 371 371 369 362 364 363 361 361 359 359 357 356 352 349 345 344 344 344 339 337 341 339 342 342 348 346 343 350 349 350 351 352 357 361 360 361 362 364 366 362 360 357 361 362 362 360 358 359 360 361 361 361 361 361 362 361 361 362 361 361 362 362 362 362 363 363 363
359 365 368 367 371 370 368 367 367 369 366 367 368 363 363 365 366 369 364 368 364 367 361 358 360 360 358 357 357 353 352 349 347 347 345 342 341 340 341 342 340 341 347 346 345 350 352 348 350 351 352 360 361 361 366 365 360 360 357 356 355 361 362 360 359 359 357 356 359 359 359 359 359 359 360 360 360 361 360 360 361 362 362 362 361
363 361 363 362 369 367 368 369 368 369 365 367 367 363 362 365 365 367 370 364 372 370 365 363 360 364 359 357 356 356 352 348 349 350 341 344 346 343 343 344 341 345 346 354 348 348 344 350 350 353 352 360 362 364 367 368 367 355 364 360 357 361 361 361 361 361 358 356 354 354 354 355 356 357 358 359 359 359 359 360 361 362 361 360 359
360 362 358 363 367 367 367 367 369 370 372 373 370 370 368 362 367 365 367 369 370 369 364 363 361 360 358 358 357 356 355 356 353 349 349 350 348 341 344 345 339 341 348 345 345 345 349 348 353 353 354 358 363 365 361 362 367 363 359 361 353 360 358 361 362 358 356 354 354 354 355 355 357 358 358 357 357 357 358 360 359 359 358 358 357
360 361 362 363 365 365 368 369 374 373 372 373 373 372 369 367 368 367 365 366 369 370 368 365 364 361 362 358 357 356 356 358 356 349 348 346 345 345 348 347 343 342 345 348 348 342 347 349 351 354 355 359 361 363 366 359 369 361 359 361 361 352 359 359 361 360 357 355 353 354 354 355 357 357 357 356 356 357 357 357 357 356 357 356 353
358 362 366 366 365 368 366 367 368 372 371 370 367 370 376 368 370 371 369 368 367 368 366 362 360 361 362 362 358 358 357 360 359 352 352 351 350 351 351 346 343 341 343 346 350 338 339 346 349 358 359 364 366 367 367 362 362 358 361 381 373 354 356 356 358 357 355 354 351 352 352 354 355 356 355 355 354 356 356 356 354 354 352 350 348
361 363 362 365 367 367 367 365 369 367 369 370 370 370 371 369 369 371 366 364 369 367 365 363 361 361 360 364 363 358 361 360 360 357 355 357 356 359 355 351 345 342 342 343 343 344 342 343 349 352 359 361 363 366 367 362 365 359 361 370 370 368 354 356 354 353 351 350 350 351 351 352 353 353 353 353 352 352 355 355 353 350 348 348 346
361 361 364 365 366 365 364 362 365 367 369 370 369 370 373 369 367 369 368 365 367 368 365 364 365 360 360 361 363 363 363 365 360 360 362 362 360 357 355 350 353 347 344 343 346 342 347 345 343 357 364 366 368 363 365 367 364 363 365 367 367 370 355 351 351 351 350 349 349 349 350 351 352 352 352 350 349 351 353 352 349 346 346 345 343
359 358 361 363 365 365 363 363 362 363 364 364 366 367 369 367 367 367 366 368 366 368 368 364 364 364 362 361 362 361 364 363 362 361 364 366 361 359 355 355 357 353 350 344 346 350 346 348 347 353 369 364 362 363 363 366 366 371 367 368 365 368 350 351 353 352 350 348 348 346 348 348 349 348 344 345 346 349 351 349 346 346 342 342 340
356 359 360 360 362 363 365 362 363 363 363 363 364 365 366 365 364 361 363 366 364 363 368 365 362 363 364 363 365 362 365 363 365 362 364 364 361 360 359 360 359 358 356 353 346 352 351 346 348 352 353 358 359 359 356 362 365 365 366 371 370 360 353 363 354 351 350 347 346 345 343 343 343 341 343 344 345 346 347 345 343 342 340 338 337
354 356 357 358 360 361 360 358 356 358 360 360 360 363 364 364 360 356 358 363 362 363 361 360 358 359 361 360 362 364 363 365 363 361 359 362 362 359 360 360 361 362 362 358 354 351 355 349 350 355 354 358 360 359 363 362 376 360 372 369 375 360 372 367 357 352 349 347 345 343 341 340 339 340 343 345 346 345 343 341 340 338 337 335 333
353 353 357 358 360 360 359 358 355 358 360 360 360 361 363 363 362 363 362 362 362 362 363 361 359 360 361 361 362 363 364 362 361 361 359 357 360 358 359 358 356 360 360 359 356 355 360 360 356 354 356 359 356 362 362 361 363 365 363 367 369 363 363 362 369 351 350 346 344 342 342 340 338 338 341 344 344 343 342 340 337 335 335 332 329
353 351 357 357 357 357 357 358 359 356 359 362 358 359 360 362 362 358 358 362 363 362 363 362 361 359 360 361 361 360 363 360 358 355 355 353 353 352 352 353 353 356 361 357 357 357 356 362 358 361 358 359 355 364 364 361 362 368 365 367 365 363 362 363 363 366 348 346 342 339 340 338 338 338 340 341 342 340 339 336 334 330 331 328 326
354 354 352 355 357 357 358 358 360 358 362 360 361 360 360 361 362 358 354 358 359 359 359 360 359 360 359 360 358 360 357 357 358 357 354 352 352 352 351 352 353 353 357 361 359 356 356 358 362 358 358 359 360 362 365 363 367 365 366 366 361 359 358 359 359 358 346 345 341 340 340 338 338 337 336 336 336 334 333 330 327 327 326 325 324
347 354 354 353 355 359 357 358 359 361 360 360 360 360 359 361 362 363 360 358 356 358 357 357 356 356 356 357 356 356 358 357 358 357 357 356 355 356 354 356 357 355 357 359 362 361 359 356 360 358 359 358 360 363 363 363 360 362 363 365 363 362 361 359 358 354 355 342 341 340 340 337 335 334 333 334 332 329 329 327 325 325 325 323 323
346 349 354 355 357 358 355 357 358 360 360 362 362 358 358 359 361 361 362 360 358 358 358 357 356 357 355 354 353 355 356 355 355 355 355 356 355 354 354 356 356 357 358 360 361 361 360 358 359 364 364 363 364 364 365 363 363 363 364 364 359 360 362 361 361 356 350 339 341 340 337 336 334 332 332 331 329 327 326 326 325 325 323 322 322
348 345 350 353 353 356 358 359 359 360 362 362 363 363 357 355 358 359 359 359 358 358 358 355 355 355 353 354 353 354 353 353 353 354 358 356 356 355 356 355 355 357 360 361 363 363 360 360 361 359 364 358 360 364 366 364 360 360 362 361 361 360 363 362 365 360 361 359 361 352 336 334 332 330 330 330 328 326 327 326 325 323 322 320 316
349 346 345 351 354 354 357 359 357 359 360 360 363 363 361 359 356 358 355 356 355 355 356 355 353 353 352 352 353 353 353 353 351 351 353 355 355 357 359 360 360 359 356 357 360 360 360 360 360 361 359 359 358 357 362 367 366 365 363 362 361 364 366 363 363 362 362 358 356 352 354 353 341 337 325 326 326 326 327 326 325 323 321 318 318
348 347 345 345 350 354 355 357 359 359 359 359 361 362 362 359 355 354 356 355 352 352 352 353 352 350 350 350 349 350 352 355 353 354 354 352 356 357 359 360 361 360 358 356 355 355 358 358 357 356 356 359 360 359 358 360 359 362 365 364 360 359 360 368 364 361 366 369 366 364 348 348 339 337 324 325 327 327 326 326 327 328 325 322 320
350 349 347 345 346 350 354 357 358 356 352 355 357 359 359 360 358 352 352 353 353 351 350 349 351 351 350 347 346 346 354 367 364 364 361 365 353 355 360 362 364 361 362 360 358 358 356 354 356 358 353 355 356 358 354 353 354 355 361 360 360 358 359 359 366 366 362 359 363 359 356 361 357 351 345 345 340 332 331 330 333 332 326 321 321
355 356 356 352 348 347 350 354 356 354 352 349 355 348 353 358 358 351 349 352 354 352 351 349 346 346 346 347 347 361 365 369 369 363 357 357 362 356 358 361 364 364 363 362 362 360 358 355 353 353 350 348 348 353 351 352 355 357 351 358 358 358 362 359 362 363 365 360 357 364 364 364 358 358 356 355 352 341 345 338 342 335 328 324 323
360 364 357 354 351 348 348 349 352 352 351 348 343 335 337 344 356 356 352 352 355 354 351 355 352 348 345 344 345 351 363 367 369 358 354 351 352 351 351 354 361 367 366 363 362 362 359 355 355 355 351 350 349 350 348 345 345 346 345 355 353 356 357 355 353 362 367 366 366 366 367 369 366 360 364 362 359 351 352 352 334 328 324 324 323
363 359 357 357 358 354 351 350 349 350 351 347 332 332 335 335 345 356 351 350 347 348 350 351 351 351 349 345 343 340 343 349 352 365 359 351 347 348 347 348 348 347 349 361 366 363 362 358 356 356 353 352 353 353 348 347 350 351 354 355 360 357 356 355 354 354 369 373 367 366 364 371 367 360 364 364 363 361 357 331 326 326 324 323 323
360 362 363 359 359 359 357 354 350 350 350 341 331 329 332 332 334 348 349 347 344 344 345 349 350 352 352 350 347 346 342 360 362 351 367 366 348 343 346 347 347 345 340 338 342 360 365 363 363 361 360 359 357 358 356 355 359 355 358 354 358 356 358 356 356 354 364 372 367 361 358 361 362 357 354 361 363 355 334 329 327 326 324 323 323
360 359 360 361 360 362 361 360 358 355 353 345 329 326 328 329 331 339 354 349 346 343 346 344 344 348 357 357 354 352 352 352 356 358 360 363 369 364 360 359 360 357 347 339 338 338 347 357 359 357 362 366 363 366 368 367 362 359 354 351 356 354 356 357 362 364 368 366 359 356 357 358 359 353 353 355 360 362 355 331 324 324 324 323 322
358 360 359 360 361 362 360 360 360 357 355 340 328 323 323 325 328 336 355 352 352 352 350 349 352 348 354 354 357 356 360 360 357 358 358 361 365 367 370 365 362 361 363 360 357 355 355 354 356 359 360 362 365 366 369 370 367 366 362 362 362 364 363 366 364 364 362 365 364 362 355 361 360 355 357 357 365 366 355 323 322 323 323 322 322
359 359 361 360 360 360 360 361 358 358 358 335 328 322 320 322 326 346 355 356 354 354 355 355 355 357 354 353 357 358 361 364 362 351 357 364 363 364 365 368 369 368 364 361 349 349 358 357 358 357 356 357 349 362 369 368 367 372 369 363 364 364 362 360 356 356 352 355 357 364 361 361 363 354 357 358 361 363 350 342 323 323 322 321 322
356 357 359 358 361 360 360 360 359 360 359 344 325 320 318 319 327 351 355 355 355 355 355 357 358 357 356 357 362 355 356 363 356 339 338 355 363 361 364 364 363 363 363 366 346 337 338 336 336 338 337 336 335 334 331 330 359 365 371 364 358 355 353 348 348 346 345 348 349 355 360 357 359 358 355 357 359 360 357 351 335 322 320 320 320
358 358 358 359 360 360 359 359 359 359 359 350 323 318 316 317 333 353 356 354 355 356 356 358 358 359 360 359 364 359 360 363 346 335 333 351 364 361 361 360 360 360 361 362 363 361 334 333 334 334 334 335 336 334 334 333 332 348 365 358 355 353 349 347 345 346 348 352 351 354 354 346 350 354 355 358 361 361 361 354 340 329 321 317 317
358 361 361 360 358 359 358 358 361 358 359 350 324 318 316 315 332 356 356 356 355 355 355 356 359 359 360 361 360 357 358 357 339 333 328 349 363 362 361 359 356 356 355 362 363 361 364 362 362 359 356 347 355 360 361 342 338 349 361 362 359 353 349 346 344 348 343 345 350 365 356 353 353 354 356 353 349 353 361 350 341 335 332 332 328
Wind_Speed
8 8 6 5 5 7 9 6 6 6 10 8 9 7 6 5 4 4 4 5 5 5 4 4 5 5 5 6 5 4 5 5 5 6 6 7 6 8 9 9 8 8 6 6 6 5 5 4 4 3 3 3 2 1 0 0 1 1 2 3 3 3 4 4 5 5 6 6 6 5 5 3 3 3 3 3 3 3 2 2 2 1 1 1 1
6 5 6 5 5 5 5 7 6 2 3 5 6 5 5 5 4 4 5 3 4 4 3 4 5 5 5 5 6 6 4 5 5 5 6 6 6 7 10 9 8 8 7 6 5 5 5 4 4 3 3 3 3 2 2 2 1 2 2 3 3 3 4 4 5 5 5 6 5 4 4 4 3 4 3 3 3 2 2 2 4 2 1 1 2
6 5 6 5 4 4 5 4 6 5 5 4 5 5 5 4 5 4 3 3 3 3 3 4 4 4 5 5 5 5 5 5 5 6 7 6 6 7 8 10 9 9 8 7 6 4 3 3 3 3 2 2 1 3 1 2 2 2 3 3 4 4 5 5 6 6 5 5 5 5 4 4 4 4 4 3 3 3 3 2 4 5 1 2 3
6 5 5 5 4 5 4 4 5 4 4 5 4 4 5 4 4 5 2 3 3 2 3 3 4 4 3 4 4 5 3 4 5 6 6 6 7 6 7 8 10 9 8 8 7 6 5 4 3 2 2 2 3 2 3 3 3 3 4 4 4 5 5 5 6 6 6 6 5 5 5 5 5 5 5 5 4 4 4 3 3 5 4 4 3
4 5 5 5 5 3 5 4 4 5 4 5 5 4 6 3 4 2 2 3 3 3 3 2 3 3 3 3 4 4 4 3 3 5 7 6 6 7 7 7 8 10 10 9 8 8 7 6 5 4 4 4 4 4 3 4 3 4 5 5 5 6 6 6 6 6 7 5 5 6 5 6 6 6 5 5 5 5 5 5 4 6 5 5 6
4 3 4 5 4 3 4 4 5 5 4 4 3 2 2 3 4 3 2 2 2 2 3 3 4 3 3 3 3 3 2 3 2 4 4 5 4 4 5 6 7 7 7 11 10 9 8 7 7 7 6 6 5 6 5 4 6 5 6 6 7 6 7 7 7 7 7 6 6 7 6 6 6 6 6 6 6 6 7 7 6 7 6 7 7
4 3 2 4 5 4 4 4 4 4 4 2 2 4 3 2 3 3 3 3 3 2 2 3 3 3 2 3 2 3 2 3 3 3 4 3 4 3 3 4 4 6 6 6 10 10 10 9 9 9 9 8 7 7 6 7 6 7 7 7 8 8 8 8 8 7 6 6 6 7 7 7 7 7 6 7 7 7 7 8 8 9 8 7 8
3 2 3 3 4 4 4 4 3 3 4 1 2 4 3 2 3 2 1 3 3 2 3 2 2 3 3 2 3 2 2 2 3 3 4 3 4 4 3 3 3 3 4 6 6 8 12 11 10 10 9 9 8 9 9 8 8 8 8 8 8 9 8 8 8 8 7 7 8 8 8 8 8 8 8 8 8 8 8 8 9 10 9 9 10
3 2 1 4 3 4 5 5 3 5 3 3 5 2 2 3 3 3 3 2 2 2 3 3 0 2 2 3 2 1 2 2 2 2 2 2 3 4 3 3 3 3 4 4 4 6 11 12 12 11 11 10 10 10 10 10 10 10 10 9 9 9 9 8 9 8 9 8 9 9 9 9 9 9 9 9 9 9 9 9 10 10 10 10 10
3 2 1 3 3 3 5 4 3 5 4 6 5 1 5 3 2 1 2 2 2 2 2 2 2 1 3 2 3 2 2 1 2 1 2 2 1 1 1 3 5 4 2 2 4 5 7 11 13 12 12 12 12 11 11 11 12 11 11 11 10 10 10 9 9 10 10 9 9 9 10 9 9 9 10 10 11 10 10 10 10 10 11 11 11
4 3 2 3 3 4 4 3 4 2 4 3 1 3 3 5 2 4 0 1 2 1 2 1 2 2 2 4 2 1 1 2 2 1 1 3 2 3 5 3 4 4 3 5 5 5 4 7 6 6 8 14 12 12 12 12 12 12 12 12 11 11 11 11 11 10 11 10 10 11 10 10 10 10 10 10 11 11 11 12 12 12 12 12 12
5 3 2 2 4 3 4 4 3 3 4 6 4 3 2 2 2 2 2 2 1 1 2 1 1 2 2 2 2 2 0 1 2 4 4 4 3 3 4 5 2 3 4 3 2 3 3 3 3 4 5 10 13 12 13 12 12 12 12 12 12 12 12 11 11 11 11 11 11 11 11 11 12 12 11 11 11 11 12 12 12 13 13 13 13
5 4 3 2 2 4 3 3 4 3 3 2 3 5 2 2 2 1 1 1 2 3 1 2 1 2 1 1 2 3 4 2 3 4 4 4 4 4 2 3 4 3 1 2 1 2 5 4 3 3 1 6 9 12 12 11 12 12 12 12 13 12 12 12 12 11 12 12 12 11 11 11 12 12 12 11 11 12 12 12 13 13 14 14 14
4 3 4 3 2 3 3 2 2 3 2 2 3 2 2 1 1 2 2 0 1 2 3 1 1 2 1 3 2 3 1 4 6 4 4 4 5 3 1 1 4 4 5 4 4 3 4 4 3 1 1 2 1 7 7 8 10 12 12 12 12 12 12 12 12 12 12 12 12 11 11 11 11 12 12 12 11 12 12 12 12 13 13 14 14
5 4 4 4 4 3 3 3 3 4 3 3 3 3 2 2 2 0 1 2 1 1 1 3 2 2 3 0 3 2 1 2 2 2 3 3 3 3 2 5 4 4 1 3 2 2 1 2 3 0 0 1 3 1 5 8 8 12 11 11 11 12 12 12 13 12 12 13 12 12 12 11 12 12 12 11 11 12 12 12 12 13 13 14 14
6 6 4 4 3 3 3 3 3 3 2 2 3 2 3 3 2 2 4 2 4 2 1 3 3 2 1 0 3 2 3 3 3 2 4 3 2 6 4 4 5 3 2 3 4 1 2 2 3 3 2 2 2 1 3 1 9 11 11 11 11 11 12 13 12 12 12 12 12 11 12 11 11 11 12 12 12 12 12 12 12 13 13 14 14
6 4 4 4 4 3 3 3 3 3 3 3 3 4 2 3 2 1 1 1 1 2 1 1 3 3 2 1 3 3 3 1 4 2 5 3 2 7 3 3 7 3 3 3 3 2 4 6 3 2 3 2 3 2 2 1 5 5 8 12 12 11 10 11 12 12 12 12 12 11 11 10 10 10 11 12 12 12 12 12 12 13 13 13 14
5 5 4 4 4 3 3 3 4 2 2 1 1 2 2 2 3 2 2 2 2 3 2 1 2 3 0 2 3 2 1 3 2 2 5 3 3 2 1 1 4 5 1 4 5 6 4 4 5 4 3 3 1 2 1 1 2 2 3 6 12 10 10 10 11 11 11 12 12 12 12 10 10 11 11 12 12 12 12 12 12 12 12 13 13
6 5 4 4 4 4 3 3 3 3 2 1 2 4 4 2 2 2 2 3 1 1 2 1 3 1 1 1 1 1 1 1 2 1 0 3 7 1 5 1 4 5 6 4 7 2 3 3 2 1 5 0 1 1 2 3 3 2 5 7 9 9 9 9 9 10 11 11 11 11 11 11 10 10 10 10 11 12 11 11 11 11 11 12 12
5 5 5 4 4 4 3 3 2 3 3 2 2 1 4 3 2 3 2 1 1 2 2 2 1 1 3 1 1 2 2 2 1 1 1 1 1 4 3 3 0 4 0 2 5 2 2 2 3 5 3 4 1 2 1 1 1 3 5 10 8 7 7 7 8 9 10 10 11 11 10 10 10 10 9 10 11 11 10 10 10 10 11 11 11
3 6 5 5 4 4 4 3 3 2 3 3 3 3 2 3 2 2 2 2 0 2 1 2 3 4 3 1 3 1 2 1 4 2 1 1 2 2 1 1 0 3 4 3 2 3 3 5 1 3 3 3 2 1 2 1 2 2 4 6 4 4 5 5 6 8 8 9 10 10 9 10 10 10 10 10 9 10 10 10 10 11 11 11 11
5 4 6 5 5 5 4 4 3 3 3 1 2 3 3 2 2 1 1 1 1 1 1 1 1 2 1 1 1 2 2 1 2 4 2 1 2 2 3 4 2 1 4 4 2 2 1 1 6 6 3 2 1 2 1 1 1 2 5 4 4 3 3 5 6 7 8 8 9 9 9 9 9 9 9 9 9 10 10 10 10 10 10 10 10
7 6 6 6 6 5 5 5 4 3 2 1 3 3 4 4 4 3 2 2 1 0 1 1 2 1 2 1 2 1 2 1 2 4 2 3 3 4 2 4 5 1 2 3 3 3 3 3 2 4 1 1 1 2 2 1 2 5 2 1 2 3 4 5 5 6 6 7 7 8 8 9 9 9 9 9 9 9 9 9 9 9 9 9 10
5 6 6 7 6 5 4 3 3 3 3 3 2 1 1 3 3 3 3 2 1 1 3 3 2 1 3 2 2 2 1 3 2 3 2 3 3 3 3 2 3 3 2 3 4 1 2 2 1 3 0 2 1 2 1 4 6 4 3 7 4 4 5 4 5 5 5 6 7 6 7 8 8 9 8 8 7 7 8 8 8 8 9 10 9
5 5 6 7 6 5 5 4 3 3 1 0 0 1 3 2 3 3 2 3 3 3 2 3 2 3 3 1 1 2 0 2 3 3 0 2 2 3 4 5 3 4 2 3 3 4 1 2 2 1 3 1 2 0 4 2 6 5 3 7 8 7 5 5 5 5 5 6 6 6 6 7 7 8 7 7 6 6 7 7 7 8 8 8 9
6 5 5 7 6 6 5 5 4 3 3 2 1 1 2 2 3 2 4 2 2 3 3 3 2 3 3 3 3 2 2 1 2 3 4 4 3 2 2 4 6 4 1 2 0 5 4 2 2 2 1 3 4 2 2 5 6 5 3 4 8 9 8 6 5 4 4 5 6 6 6 7 7 7 7 6 6 6 6 6 7 7 7 7 7
6 5 5 6 6 6 6 6 5 4 4 4 3 3 3 3 2 3 3 3 3 3 4 4 3 1 3 3 3 3 2 3 2 3 3 3 1 1 1 3 4 4 2 2 4 2 6 1 2 6 2 1 3 2 2 4 5 4 2 5 2 13 9 7 4 3 4 4 5 6 6 7 7 6 6 5 5 5 5 6 6 5 5 5 6
6 6 7 6 6 6 6 6 5 5 5 5 4 4 4 4 3 4 4 3 3 4 4 4 4 4 4 2 2 4 3 3 3 1 1 2 2 1 1 2 3 3 3 3 4 1 2 3 4 2 3 1 1 4 2 5 2 2 6 4 4 5 8 7 5 4 3 3 3 4 5 6 5 5 4 5 4 4 5 5 4 4 4 4 6
6 7 7 7 6 6 6 6 6 5 5 5 5 5 4 4 5 4 5 4 4 4 4 4 4 4 3 3 3 3 3 2 4 2 1 2 2 1 1 2 1 3 3 3 3 4 5 5 3 5 1 2 2 3 3 4 3 2 4 5 4 1 8 8 7 3 4 4 3 3 4 4 4 4 4 4 4 4 3 4 4 4 3 4 7
6 6 7 7 7 7 6 6 6 7 6 6 6 6 5 5 4 5 5 4 4 4 4 5 5 4 4 3 2 3 3 3 3 3 0 2 3 2 2 1 1 3 3 3 3 4 6 3 4 1 5 1 3 5 2 3 8 2 4 5 5 3 2 5 5 5 5 4 4 2 1 3 2 3 3 3 3 2 3 4 4 3 4 6 8
8 6 7 8 8 8 7 7 6 7 7 7 6 6 6 5 5 5 5 5 5 5 5 5 5 4 4 4 3 3 3 4 4 3 2 3 3 3 2 2 3 3 4 3 5 2 3 5 5 5 6 4 3 4 5 4 5 2 4 4 5 2 6 10 8 9 6 7 4 4 1 0 1 2 2 2 3 4 4 4 3 2 4 6 7
9 9 8 8 8 9 9 8 8 8 8 7 8 7 7 6 6 6 5 6 6 6 6 5 5 5 5 5 5 4 4 4 4 4 4 3 4 4 3 3 3 4 3 4 5 6 5 6 5 5 7 4 3 4 4 4 2 8 2 4 5 5 8 8 10 12 10 8 7 6 5 3 2 2 2 3 4 4 5 3 2 1 3 5 6
9 10 10 9 9 9 9 8 9 8 7 8 7 7 7 7 6 6 6 5 6 6 6 6 6 5 5 5 5 5 5 5 4 4 4 5 4 4 4 4 5 4 5 5 6 6 5 5 6 6 6 6 5 3 5 5 5 2 4 5 5 6 6 5 6 12 12 10 8 8 7 5 5 3 3 5 5 4 4 3 1 1 3 4 5
10 11 11 10 10 10 10 9 9 9 8 7 8 7 7 7 8 7 7 7 6 6 6 6 6 6 5 6 6 7 6 6 6 6 6 6 5 6 5 5 5 5 5 5 5 6 7 5 6 5 6 6 7 4 4 5 6 5 6 5 6 6 5 4 2 8 12 11 10 10 9 7 5 4 5 5 6 4 3 2 1 1 3 4 4
11 10 11 11 10 10 10 9 9 9 7 9 9 8 7 8 8 8 7 8 8 8 7 8 7 7 7 6 7 7 6 7 7 7 7 7 6 6 6 5 4 5 4 5 5 7 7 7 6 7 6 4 5 6 6 6 5 5 6 6 6 5 6 5 6 3 13 12 11 10 10 9 7 7 8 8 7 6 5 3 2 1 2 2 4
11 11 11 11 11 9 10 10 10 9 9 9 9 9 9 9 9 8 8 7 7 8 8 8 8 8 8 7 8 7 7 7 6 6 6 6 6 5 6 6 6 6 6 5 6 6 6 8 6 6 6 6 6 6 6 6 7 6 6 5 6 7 6 7 5 6 12 12 12 11 12 11 10 10 10 10 9 8 7 5 3 2 1 2 3
12 12 11 11 10 10 11 11 11 10 10 10 10 10 10 9 10 9 9 8 8 8 8 7 7 7 7 8 7 7 7 7 7 7 7 8 7 7 7 6 6 6 6 6 6 6 7 8 7 6 6 7 6 7 7 7 6 6 5 5 6 6 6 7 7 1 13 13 11 12 12 12 12 12 12 12 11 10 9 7 6 4 2 2 2
13 12 12 12 11 11 11 11 11 11 10 10 10 10 11 11 10 10 9 9 9 9 9 9 9 8 8 8 8 7 8 8 8 8 7 8 8 8 8 7 6 6 6 7 7 7 7 7 7 7 6 7 7 6 5 6 7 6 5 6 6 5 5 6 5 4 5 7 5 5 5 7 11 13 14 13 12 11 9 9 8 6 4 3 2
13 13 13 12 11 12 12 12 12 11 11 11 10 10 11 10 10 10 10 10 10 9 10 10 10 10 10 10 9 9 9 9 9 9 8 8 8 9 7 7 7 7 8 7 7 8 8 8 8 8 7 7 7 7 6 5 5 5 7 7 7 5 4 4 5 5 7 5 9 14 10 11 12 11 12 13 13 12 10 8 8 8 7 4 2
13 14 14 13 13 12 12 12 12 11 12 12 11 11 11 11 11 11 10 10 11 11 11 11 11 11 11 11 11 10 11 10 10 10 9 8 7 8 8 7 7 8 8 8 7 8 8 8 8 8 7 6 6 6 7 6 7 6 6 7 6 5 4 4 6 7 6 4 6 6 4 8 10 9 9 10 11 11 10 9 9 9 8 6 3
12 13 13 13 13 13 12 12 12 12 12 12 11 12 12 12 12 12 12 12 12 11 11 11 11 11 11 11 11 12 10 10 13 11 10 7 7 7 7 7 7 8 8 8 8 7 7 8 8 7 7 7 7 7 7 7 7 7 5 5 6 6 7 6 5 5 5 7 5 7 5 7 9 8 7 7 7 10 9 11 9 11 10 7 5
10 9 10 11 12 13 13 13 12 12 12 11 12 16 14 11 12 11 11 11 11 11 10 11 12 12 12 12 12 13 11 10 12 13 13 12 10 10 7 6 7 8 8 8 8 8 8 8 8 8 9 8 8 7 7 7 5 5 7 6 6 6 5 6 6 6 6 6 6 4 6 6 7 4 8 8 7 10 7 8 8 8 10 9 6
10 9 9 12 13 13 13 13 14 12 12 11 14 17 17 15 12 11 11 10 10 11 12 10 10 12 12 13 12 13 12 9 10 13 14 15 15 15 14 12 9 6 7 9 9 8 8 9 8 9 9 9 9 8 8 9 8 7 6 5 5 6 6 6 7 5 5 6 4 6 7 7 6 8 7 6 7 8 10 8 12 15 12 9 7
9 11 12 12 12 13 12 13 13 13 12 12 14 18 18 18 14 12 12 11 11 12 12 12 12 12 13 13 13 12 12 12 12 11 13 16 16 16 16 15 15 16 12 8 7 8 9 9 9 9 9 8 7 7 8 8 6 6 6 5 6 6 7 7 7 7 3 1 5 6 8 6 7 8 7 7 5 8 6 14 16 14 12 10 8
11 11 11 12 13 13 12 12 14 14 13 15 15 18 19 19 19 16 13 13 13 13 13 13 13 12 11 11 12 11 12 12 11 14 11 12 14 17 16 16 15 15 15 16 14 10 8 9 9 10 9 8 9 8 8 7 5 7 5 6 6 6 6 7 7 7 6 3 5 7 9 8 6 6 8 7 7 5 9 13 15 14 12 9 9
11 12 13 13 12 11 11 12 12 13 15 14 16 19 19 20 19 16 14 15 14 14 12 13 13 13 11 11 12 12 12 11 9 10 10 11 10 11 11 10 11 14 16 18 17 17 13 11 11 12 11 9 9 8 7 6 7 7 7 7 7 7 7 7 8 7 7 7 9 8 8 8 7 7 6 6 2 7 7 12 15 14 12 11 9
12 12 13 13 12 13 13 12 12 13 13 14 13 17 19 20 20 16 14 14 13 13 14 14 12 14 11 11 12 13 12 11 11 10 11 11 11 10 10 12 13 13 12 13 14 13 12 12 14 15 13 12 11 11 9 7 8 8 7 8 8 8 8 8 9 9 10 9 11 8 9 8 6 6 6 5 3 6 6 10 15 15 14 12 11
10 12 12 12 13 13 14 14 13 13 13 14 15 16 17 17 18 11 12 12 13 13 13 13 13 12 13 13 12 12 12 11 11 13 11 10 11 12 12 11 11 12 13 13 14 14 14 14 14 15 14 15 13 12 9 8 7 7 7 9 8 8 8 8 9 8 9 8 7 9 8 7 6 7 5 6 3 6 6 6 11 15 14 13 11
13 12 12 13 11 12 13 13 14 12 13 12 15 16 17 18 13 10 11 11 12 13 13 12 12 13 13 13 12 13 14 12 12 12 12 10 11 12 12 12 12 12 12 11 15 19 18 18 17 18 17 15 13 10 7 5 7 4 5 6 8 8 8 9 9 9 10 8 8 5 9 8 7 6 7 6 6 3 8 8 6 9 11 10 9
14 12 11 10 11 12 14 14 14 13 13 12 14 16 17 18 16 11 10 11 12 11 12 12 12 12 13 16 15 14 13 12 12 13 13 11 11 13 13 13 13 14 13 12 8 11 20 20 21 20 17 16 15 13 10 9 7 4 7 10 12 9 10 10 10 10 9 7 8 7 7 9 8 6 6 5 6 6 6 6 7 8 9 8 9
13 11 10 10 11 11 13 15 14 15 13 13 16 17 18 19 16 10 11 10 11 12 12 12 12 12 12 12 17 15 14 14 14 11 13 12 12 13 14 14 15 15 13 10 11 11 8 10 10 11 11 12 11 9 11 16 14 10 9 12 11 11 11 11 10 8 9 8 8 6 7 7 7 7 6 6 7 7 3 8 7 8 8 7 7
Wind_Direction
145 151 177 136 124 128 129 149 151 178 145 177 148 165 137 123 126 114 108 121 116 106 115 113 121 110 110 124 119 117 99 104 114 119 123 134 132 140 144 141 141 140 145 138 136 141 138 141 139 129 113 128 119 108 203 211 284 341 354 350 353 355 351 347 349 10 7 0 12 5 10 7 348 1 359 31 18 33 30 11 23 57 48 5 306
120 116 117 116 106 95 104 128 149 96 120 92 105 110 112 107 100 115 100 100 92 106 119 120 116 108 116 122 129 113 121 121 131 130 127 128 126 141 155 152 150 153 147 153 153 150 148 150 146 152 158 138 177 182 203 235 286 304 326 330 328 341 335 339 337 345 353 348 360 350 341 330 330 332 339 359 350 5 348 356 336 345 218 315 310
111 113 108 106 108 95 108 125 110 134 75 85 69 79 87 84 85 95 96 76 88 98 102 113 110 128 126 123 125 120 120 130 138 146 127 125 133 145 156 162 164 163 165 158 157 157 155 134 149 146 170 175 170 211 214 233 267 290 296 315 321 321 335 323 326 328 331 333 342 324 322 314 313 310 313 324 326 328 324 316 319 327 215 293 285
113 115 110 114 103 106 91 70 73 71 88 76 90 82 85 90 62 65 78 116 115 133 136 119 118 109 129 105 110 118 135 177 132 98 105 125 138 142 153 167 170 172 172 170 168 171 171 171 164 181 166 226 220 240 234 260 259 281 298 304 307 312 309 314 307 310 315 317 324 316 309 312 308 307 309 302 305 309 304 316 293 300 295 280 267
98 103 111 93 89 95 97 99 102 92 98 92 114 121 92 96 121 148 116 114 125 135 115 115 105 117 106 120 93 104 123 93 119 164 127 143 149 152 159 160 166 177 179 181 183 177 183 184 187 196 206 207 231 233 251 251 268 275 281 282 287 288 296 294 304 299 305 311 306 311 305 307 308 310 304 300 295 301 299 294 295 284 276 269 264
110 106 118 118 114 98 94 89 78 85 114 143 88 49 132 141 96 98 139 144 109 95 106 116 131 115 122 113 124 119 121 122 119 90 151 121 108 142 149 160 165 171 177 187 188 189 192 193 198 206 214 221 226 238 237 251 254 256 260 272 276 279 285 296 303 304 304 304 295 297 303 293 294 300 300 292 291 287 284 288 279 284 278 267 271
101 100 110 123 135 120 132 116 108 133 103 49 187 105 117 121 146 178 138 102 93 74 99 103 91 104 86 105 115 121 114 90 91 114 97 119 139 124 142 148 155 164 171 174 187 195 194 201 206 212 215 223 230 236 241 242 252 258 262 269 276 284 289 288 290 297 295 293 284 279 290 291 284 287 290 289 285 284 282 278 280 288 294 276 271
114 116 140 147 113 135 104 100 134 122 105 63 322 140 100 115 84 89 354 81 114 140 116 93 108 108 124 122 119 140 108 129 131 127 127 150 140 143 157 140 157 138 142 163 169 182 197 203 212 214 220 225 232 236 240 246 251 254 264 269 269 271 279 284 286 284 285 282 283 285 284 287 285 282 283 284 284 282 278 280 281 284 289 286 281
119 108 193 120 106 125 120 145 158 91 52 38 304 99 174 96 356 51 83 199 125 109 74 90 33 130 126 125 100 59 128 112 125 102 82 122 170 153 147 131 123 132 186 162 154 162 189 206 208 216 220 226 229 234 239 247 249 252 258 260 263 267 266 269 273 276 278 280 280 279 280 282 287 286 282 281 284 283 282 280 278 274 276 275 274
134 132 296 125 123 108 107 121 130 126 160 188 175 203 101 347 133 106 95 350 349 101 136 130 121 96 113 137 111 139 109 125 108 153 151 129 114 104 139 153 171 174 206 149 134 158 168 193 207 212 218 222 226 231 237 242 247 253 254 255 259 263 267 269 269 271 273 274 278 277 277 277 277 279 276 272 273 276 278 276 275 275 274 274 275
140 150 141 125 129 118 133 143 131 136 189 146 144 95 103 167 143 109 282 242 122 31 63 93 112 155 119 97 110 42 109 127 196 171 179 168 99 174 156 183 138 142 142 204 169 159 163 164 193 202 208 212 222 224 231 235 244 248 250 254 257 257 261 261 264 268 270 270 271 272 274 272 272 271 270 268 267 265 264 268 270 270 271 271 271
156 162 166 138 132 145 126 149 135 157 69 285 122 130 109 120 76 153 164 169 163 196 165 111 114 68 51 127 86 128 2 175 189 173 172 162 154 223 163 145 144 153 150 181 16 124 134 131 200 209 170 187 207 216 220 228 236 241 247 252 253 254 258 260 263 264 266 268 268 271 271 270 269 269 269 266 263 261 261 259 260 261 262 265 267
160 162 148 138 132 120 141 148 157 142 169 146 70 79 74 69 129 284 173 135 160 176 82 60 19 81 49 160 138 193 137 226 213 178 168 148 145 162 88 144 138 149 149 64 172 188 148 166 200 195 192 150 197 206 211 218 225 232 240 244 248 253 255 259 260 262 264 265 267 266 266 267 267 268 268 266 263 263 260 258 257 258 260 261 260
165 170 154 168 145 145 151 154 137 125 84 81 108 133 149 232 162 155 256 106 113 347 86 218 154 87 134 137 123 78 59 199 205 130 147 133 125 104 64 156 150 151 144 132 181 188 179 167 189 149 93 244 212 172 204 212 219 224 230 235 242 247 250 254 258 261 262 263 265 265 265 265 265 267 265 264 262 262 261 260 259 257 257 257 258
171 171 168 173 163 149 164 151 151 133 155 158 148 149 180 135 238 322 49 293 25 73 133 327 43 57 59 278 116 133 133 254 76 121 116 127 154 102 240 136 108 129 193 191 146 213 98 89 75 317 139 276 248 223 183 197 182 193 210 225 233 242 248 251 255 259 261 264 266 268 268 267 266 265 264 264 264 262 261 261 261 260 259 257 256
171 175 174 160 157 167 161 152 147 151 156 139 156 153 142 199 205 123 110 328 245 172 104 107 324 91 171 96 153 116 125 118 167 129 129 64 213 146 154 167 119 68 150 224 159 61 114 181 157 172 222 210 286 235 245 16 137 180 192 209 220 230 239 247 254 259 262 265 267 268 268 267 267 267 266 266 264 263 265 265 264 263 262 261 257
166 181 167 159 156 183 155 146 151 170 148 149 200 164 186 123 58 151 255 243 265 77 84 50 84 1 42 250 121 138 63 99 85 352 303 180 151 118 90 260 113 96 269 40 27 202 246 151 149 181 187 222 213 220 256 218 158 173 190 204 212 219 224 238 247 255 262 267 272 274 274 274 273 272 273 271 269 270 271 269 267 265 265 264 264
170 171 169 159 166 163 165 158 156 169 193 240 107 102 167 195 132 268 112 116 358 321 89 131 81 103 211 42 18 29 28 7 318 41 301 10 203 96 358 282 117 150 163 192 188 189 188 191 159 196 191 197 218 273 307 226 161 212 221 185 201 208 219 225 239 256 264 270 275 277 278 277 275 276 277 279 280 278 276 274 273 271 270 268 268
162 175 164 163 161 163 165 195 157 163 193 161 189 227 139 124 105 97 45 50 320 24 289 111 54 224 168 152 156 340 57 124 40 23 36 9 326 327 115 136 220 157 181 186 164 122 53 3 285 24 139 194 189 253 219 188 148 154 96 140 185 204 218 227 240 255 266 274 279 280 281 281 279 278 278 277 278 279 278 277 275 274 273 272 271
162 160 174 165 165 166 172 200 194 162 176 200 251 30 54 79 79 74 74 36 42 324 337 10 59 86 29 328 141 44 14 298 349 19 189 4 292 294 155 92 43 76 157 118 78 104 94 266 176 197 170 148 199 204 257 117 273 187 195 172 184 199 214 234 247 255 265 275 279 282 285 287 289 287 284 286 289 289 285 284 284 282 281 284 284
187 162 183 171 173 169 179 193 198 176 195 191 215 129 132 101 123 137 141 136 229 39 29 320 7 315 103 334 345 293 216 229 132 245 283 283 236 142 33 14 216 105 14 1 35 85 156 131 23 313 136 160 192 172 239 339 87 219 103 136 164 192 220 238 252 261 269 272 281 287 290 295 295 297 298 298 295 295 295 294 296 299 301 302 304
180 174 171 186 176 176 185 193 200 194 215 160 116 103 144 153 169 174 89 62 67 173 240 258 265 297 20 358 316 317 302 273 226 221 123 307 287 307 249 159 173 55 270 42 314 60 323 54 201 202 91 122 133 154 68 202 188 98 98 150 186 219 247 258 258 263 268 275 284 290 297 300 303 303 304 304 304 304 305 306 306 306 308 312 314
176 179 179 190 182 190 198 180 215 159 214 181 186 204 165 173 173 130 165 194 176 250 281 262 264 316 273 305 261 213 219 264 312 346 332 212 284 289 310 9 359 87 101 350 291 264 163 214 314 97 150 113 74 19 47 29 115 59 46 125 187 251 249 255 263 263 271 276 286 297 303 306 308 307 307 309 311 313 315 317 313 313 322 329 332
194 172 189 188 175 192 212 182 194 194 181 220 201 207 220 131 156 145 169 195 233 244 301 331 305 243 284 219 247 279 197 248 245 170 231 320 327 290 324 325 267 266 125 171 231 336 306 224 171 86 238 65 55 351 212 226 96 82 305 163 213 214 227 251 263 268 272 283 289 297 303 303 304 307 310 314 318 321 322 319 319 329 341 345 347
195 186 182 188 172 188 196 198 183 205 208 141 278 156 293 209 130 194 159 179 204 210 224 238 267 320 307 323 294 264 276 297 276 276 257 94 237 269 312 330 252 239 88 344 329 296 179 10 74 62 84 297 112 263 316 326 118 122 323 175 192 200 216 220 249 262 280 288 298 303 301 301 301 302 306 313 319 324 324 326 339 352 353 358 353
195 197 182 187 183 183 191 197 187 188 189 199 201 222 216 264 182 205 204 176 227 206 243 253 269 254 262 301 290 296 280 217 271 246 232 206 218 283 349 300 285 307 146 198 229 270 171 144 115 106 282 16 335 348 326 312 119 130 204 308 185 196 206 211 226 260 283 298 303 304 295 301 304 311 316 320 327 332 337 352 5 4 4 1 7
202 193 198 185 190 180 186 201 188 195 191 199 209 210 209 228 258 216 264 181 216 227 224 235 249 256 286 272 295 300 307 295 277 294 325 341 4 309 309 307 318 314 15 264 195 256 328 86 271 110 68 304 308 296 301 311 88 136 259 264 246 179 198 199 225 250 287 301 306 306 304 299 307 318 325 329 337 345 5 15 17 20 14 15 13
198 194 192 198 192 189 188 200 196 195 202 209 221 219 200 221 221 227 230 225 209 218 250 261 252 238 253 266 281 294 316 295 305 295 293 334 1 352 138 284 317 319 326 340 322 139 186 247 157 7 118 353 306 284 181 265 162 158 221 287 328 172 180 188 205 241 267 279 295 305 304 306 310 323 332 349 354 359 15 30 41 42 31 15 21
200 199 196 189 196 202 197 200 193 205 203 210 215 225 220 218 215 224 238 237 218 222 247 250 272 281 244 211 241 268 282 311 295 294 26 343 311 304 300 294 341 297 303 327 338 314 322 339 332 149 6 139 264 292 280 268 107 29 326 310 304 310 168 196 195 196 248 245 259 284 305 313 320 337 355 7 12 11 39 60 62 50 26 26 25
212 202 190 194 200 204 206 205 200 197 210 207 209 217 223 233 231 228 232 246 243 235 239 250 246 241 272 278 223 242 234 247 242 273 338 217 251 254 256 244 235 272 310 291 297 286 295 298 300 132 178 158 255 238 258 315 124 216 320 302 301 320 97 275 193 202 237 242 234 258 299 324 348 18 16 27 24 54 81 87 73 42 30 26 22
200 209 203 199 197 197 210 207 202 206 201 211 205 213 215 231 237 233 224 222 236 242 242 241 247 248 253 258 274 269 279 287 296 273 257 233 242 255 262 268 265 273 285 273 274 248 300 294 299 319 330 300 303 335 313 300 151 199 301 311 292 43 275 267 209 177 205 228 227 207 192 106 25 36 60 55 108 93 102 99 69 38 28 28 21
202 196 211 209 201 202 201 210 211 206 205 207 208 202 215 223 231 238 218 207 229 236 246 242 245 232 229 242 247 261 265 260 261 275 256 253 276 271 263 252 247 257 254 269 272 282 280 285 298 305 275 295 347 281 299 301 187 178 277 286 277 213 253 277 170 162 184 208 204 184 150 135 90 97 104 114 114 121 119 108 88 48 34 26 22
204 198 203 210 207 208 212 205 213 212 205 207 205 204 205 214 225 236 259 241 223 230 235 254 264 258 246 252 250 251 259 262 260 260 272 255 235 247 246 245 247 242 241 247 267 276 275 278 288 287 305 315 294 312 286 276 296 289 297 299 301 295 291 299 142 161 180 199 196 180 145 131 118 124 140 141 134 138 134 129 152 61 27 25 15
208 207 199 206 208 210 209 210 214 217 205 206 211 206 204 208 218 217 221 234 241 243 246 247 246 260 255 240 252 253 244 249 257 255 245 254 242 242 231 229 243 242 221 252 260 275 283 284 275 294 298 283 275 252 283 303 299 302 290 299 288 279 284 301 169 176 185 193 190 176 139 136 144 151 157 154 151 147 147 169 193 59 36 23 355
199 215 205 206 204 206 214 209 209 218 213 203 211 216 208 207 215 227 224 212 220 231 234 239 246 247 249 250 245 243 246 241 236 247 261 266 269 273 278 272 262 252 234 224 247 263 277 281 287 280 274 287 301 308 298 289 289 275 277 277 289 303 305 285 288 187 186 190 189 168 144 152 163 169 163 166 166 163 179 184 176 74 47 17 325
201 200 215 210 203 200 207 213 210 214 213 215 212 214 216 211 214 217 229 231 223 220 230 237 231 231 238 239 247 250 249 247 251 260 262 260 259 254 256 253 256 270 282 270 243 256 268 279 280 283 291 295 289 287 287 284 281 281 286 297 284 283 293 293 280 289 178 180 188 164 158 163 166 169 171 172 176 179 179 181 169 131 93 297 315
214 199 198 210 206 200 206 207 210 210 214 214 217 223 215 213 217 219 218 220 227 228 231 232 240 243 240 241 238 237 243 252 254 251 248 250 251 257 253 247 247 248 246 245 250 247 253 262 273 275 279 274 277 277 277 279 282 282 272 271 284 286 284 279 287 65 144 176 194 160 170 169 171 175 177 177 180 184 182 175 170 163 193 267 296
214 214 196 199 205 203 206 208 209 209 212 215 215 222 226 221 214 222 221 221 221 223 225 228 230 232 237 239 245 249 250 249 252 251 251 254 255 249 252 264 267 253 243 246 248 252 259 263 270 278 271 272 271 267 278 281 282 282 287 288 279 266 260 267 273 294 170 169 184 154 176 180 180 181 184 182 183 186 187 177 167 168 183 194 253
209 213 209 199 199 204 204 208 209 208 208 213 216 217 226 234 229 220 226 221 224 224 226 230 232 229 231 234 234 237 242 246 251 253 251 248 252 259 260 256 250 255 256 252 245 248 250 255 258 259 268 266 264 267 254 256 267 276 284 289 285 278 265 272 281 276 294 268 169 180 179 193 170 187 187 191 184 187 187 184 178 173 169 183 184
211 213 215 207 200 204 205 207 209 208 206 210 212 216 219 225 227 228 226 231 227 225 229 229 233 237 234 235 238 232 229 231 238 246 250 255 252 250 249 246 245 250 255 255 253 249 248 252 255 264 268 281 286 284 288 273 264 254 254 267 274 284 289 283 273 278 278 263 283 187 168 177 162 179 175 194 194 188 188 188 192 178 179 162 181
208 214 221 219 209 202 206 208 210 210 210 208 210 210 214 215 224 227 226 227 231 236 236 235 232 234 243 248 245 243 237 216 214 220 241 259 255 251 246 249 252 249 248 251 257 258 258 260 264 267 268 264 265 271 272 273 268 272 278 284 289 291 282 274 270 295 289 279 268 280 207 183 187 186 187 200 201 191 193 209 189 181 165 162 164
224 215 222 226 226 212 205 207 212 215 216 216 202 201 202 212 215 225 226 226 230 234 235 238 244 244 243 244 248 250 245 228 204 204 212 228 241 253 260 251 245 244 247 253 253 254 256 258 260 261 260 259 260 253 260 265 270 264 262 242 255 271 288 290 289 263 274 277 287 293 287 284 290 190 187 210 189 180 204 193 205 171 152 156 159
218 217 221 227 232 234 222 212 213 219 223 222 194 188 196 207 217 218 225 231 228 230 237 237 240 244 247 247 250 244 235 220 207 202 208 214 221 230 243 251 258 261 256 248 247 250 256 257 256 255 258 264 267 275 279 283 284 289 290 297 291 288 277 284 285 286 257 268 257 265 269 278 277 276 253 258 172 184 204 186 130 128 142 152 147
211 218 217 219 226 232 234 232 226 222 226 230 192 186 192 199 208 221 224 227 229 230 233 237 238 240 242 247 248 249 242 235 232 205 209 213 218 224 230 237 243 246 243 246 258 257 253 257 257 259 268 269 275 270 271 275 285 297 308 308 298 289 285 276 275 275 303 216 280 276 278 268 264 257 253 251 225 209 159 129 134 135 143 149 145
214 212 218 219 217 223 231 230 237 235 231 218 195 189 191 195 201 211 230 234 234 236 235 232 236 238 244 245 248 252 256 242 217 227 210 211 216 221 226 232 240 244 247 243 238 240 256 260 265 265 261 266 263 263 265 276 292 277 278 274 274 274 270 272 274 284 289 261 266 273 278 282 283 274 261 235 243 110 120 135 136 138 138 148 149
213 216 216 219 223 224 226 226 228 234 235 225 190 187 191 195 199 202 226 232 237 242 242 242 241 237 231 236 242 246 246 250 248 233 226 225 215 213 222 229 233 237 235 239 240 237 236 244 250 253 253 255 264 266 269 272 266 266 268 272 274 276 275 274 284 282 282 276 270 275 276 278 281 288 293 294 197 133 145 139 141 143 152 157 164
214 214 219 218 218 221 225 225 226 230 230 229 188 190 190 193 196 197 219 230 236 238 239 240 243 247 246 239 237 241 243 243 240 238 235 230 231 228 218 221 227 233 232 229 226 226 224 229 233 241 246 247 251 255 258 256 257 257 262 266 271 274 282 287 282 271 266 253 245 242 251 261 274 263 259 285 136 171 128 140 152 156 161 168 167
227 217 213 221 219 218 220 224 228 228 233 215 196 187 194 196 191 197 212 223 232 239 240 238 238 235 237 240 244 242 242 240 236 231 235 237 234 235 237 236 234 233 235 230 222 220 222 222 225 231 236 238 236 243 252 264 258 252 246 247 245 247 252 260 268 272 273 277 248 209 238 250 262 282 285 282 231 170 150 163 172 164 166 171 175
246 233 225 221 219 222 221 220 225 230 234 218 198 191 189 191 182 206 212 220 227 234 238 239 238 236 235 233 232 240 239 238 234 222 221 222 235 239 241 243 245 247 247 239 211 214 217 224 229 232 240 245 248 248 255 247 253 273 276 268 260 262 269 271 271 273 275 276 276 239 205 239 254 260 271 268 279 243 175 177 156 172 163 169 176
253 242 236 232 227 222 221 225 221 223 229 219 193 193 191 181 186 201 211 217 229 230 235 236 237 237 235 231 231 233 237 240 232 211 205 201 224 233 240 247 248 247 247 250 254 213 213 215 219 226 230 235 241 247 243 247 233 230 228 244 250 255 258 256 258 264 272 275 273 274 285 279 288 284 277 277 269 249 240 143 139 148 168 183 191
274 270 260 249 238 232 231 227 213 220 231 222 189 193 189 184 192 207 211 221 228 233 234 235 231 235 237 230 225 228 232 236 233 212 199 195 219 228 234 241 246 249 249 249 244 253 228 220 233 232 241 241 240 236 236 231 220 215 230 241 249 249 253 254 260 272 273 266 266 261 262 267 262 256 261 271 272 272 274 122 150 162 180 183 183